User: anonymous   Login
Location: Astronight Observatory
(42.6003°N, 71.2981°W)
Time: 02:52:46
(UTC-05:00)
Language:

DELTA 2 R/B (1) - Orbit

View from above orbital plane
View from above orbital plane
View from above satellite
View from above satellite

Ground track
Ground track

The orbit data is extracted from the following two-line orbital elements,

1 27665U 03005C   16342.20354959  .00000029  00000-0  45274-4 0  9994
2 27665  39.5771   7.7964 0008309 100.8475 317.5119 14.28428534723479
Epoch (UTC): 07 December 2016 04:53:06
Eccentricity: 0.0008309
inclination: 39.5771°
perigee height: 791 km
apogee height: 803 km
right ascension of ascending node: 7.7964°
argument of perigee: 100.8475°
revolutions per day: 14.28428534
mean anomaly at epoch: 317.5119°
orbit number at epoch: 72347

The dashed part of the orbit path shows where the satellite is in the earth's shadow,  

DLR